Retour au catalogue

COSMOS 1275 DEB

ActifPO
NORAD 42164·DEBRIS·🇷🇺 Russia

Lancé Jun 4, 1981 depuis Plesetsk Cosmodrome

Loading…

Prochains Passages (prochaines 24 heures)

TLE

FraisSource: Space-Track

Époque: Sep 13, 2026, 07:29 UTC

1 42164U 81053SC  26256.31248698  .00006145  00000-0  12331-2 0  9994
2 42164  82.9142 262.6107 0021345  94.4182 265.9461 14.61440697668456

Suivez COSMOS 1275 DEB en temps réel avec AllMySat

Download on the App Store